Regional Weather Roundup
Issued by NWS Burlington, VT

Current Version | Previous Version | Text Only | Print | Product List | Glossary Off
Versions: 1 2 3 4 5 6 7 8 9 10 11 12 13 14 15 16 17 18 19 20 21 22 23 24 25 26 27 28 29 30 31 32 33 34 35 36 37 38 39 40 41 42 43 44 45 46 47 48 49 50

000
ASUS41 KBTV 180910
RWRBTV
VERMONT REGIONAL WEATHER ROUNDUP
NATIONAL WEATHER SERVICE BURLINGTON VT
400 AM EST THU DEC 18 2014

NOTE: "FAIR" INDICATES FEW OR NO CLOUDS BELOW 12,000 FEET WITH NO
SIGNIFICANT WEATHER AND/OR OBSTRUCTIONS TO VISIBILITY.

* THESE REPORTS ARE NOT UNDER NWS QUALITY CONTROL AND/OR DO NOT
  REPORT WEATHER SUCH AS PRECIPITATION AND FOG.

VTZ001>019-181000-
_____VERMONT_____


CITY           SKY/WX    TMP DP  RH WIND       PRES   REMARKS
BURLINGTON     CLOUDY    34  32  92 N3        29.77R
MONTPELIER     LGT SNOW  33  31  92 NW7       29.73F FOG
MORRISVILLE    LGT SNOW  33  31  92 N6        29.73S FOG
ST. JOHNSBURY*   N/A     33  32  96 MISG      29.68F
LYNDONVILLE*   LGT SNOW  33  31  96 W3        29.69S
MIDDLEBURY*    LGT SNOW  33  33 100 CALM      29.76R
RUTLAND*       CLOUDY    34  28  80 W12       29.74S
SPRINGFIELD    CLOUDY    37  28  70 VRB7      29.72F
HIGHGATE*      LGT SNOW  32  32  99 CALM      29.77S
NEWPORT*       LGT SNOW  32  30  93 NW3       29.70F
BENNINGTON     LGT SNOW  32  29  88 W14G20    29.79S FOG
SUTTON*          N/A     30 N/A N/A MISG        N/A

_____LAKE CHAMPLAIN_____


CITY           SKY/WX    TMP DP  RH WIND       PRES   REMARKS
COLCHESTER RF*   N/A     36  36 100 NE10        N/A

$$

NYZ007-026>031-035-052-083-181000-
_____NORTHERN NEW YORK_____


CITY           SKY/WX    TMP DP  RH WIND       PRES   REMARKS
PLATTSBURGH    LGT RAIN  33  33 100 CALM      29.77S FOG
SARANAC LAKE   CLOUDY    30  32 100 VRB5      29.74R FOG
MASSENA        LGT SNOW  33  31  92 W8        29.83R FOG
OGDENSBURG*    LGT SNOW  34  34 100 W7        29.85R
POTSDAM*       LGT SNOW  34  34 100 W10       29.83R
WATERTOWN      LGT SNOW  34  29  82 W14       29.90S
FT DRUM        LGT SNOW  31  30  94 W10       29.86S FOG
ALBANY         LGT SNOW  35  29  78 W10G20    29.85S
GLENS FALLS    CLOUDY    33  31  92 S10       29.79S

$$
NHZ002-005-011-181000-
_____NEW HAMPSHIRE_____


CITY           SKY/WX    TMP DP  RH WIND       PRES   REMARKS
LEBANON        CLOUDY    34  32  92 CALM      29.71S FOG
KEENE          CLOUDY    34  32  93 CALM      29.73F
MT WASHINGTON  SNOW      14  14 100 NW47G56     N/A  VSB 1/16WCI -11
PLYMOUTH       CLOUDY    37  35  95 W9G17     29.67F
WHITEFIELD     LGT SNOW  34  32  92 S6        29.67F FOG

$$

_____REGIONAL QUEBEC LOCATIONS_____


CITY           SKY/WX    TMP DP  RH WIND       PRES   REMARKS
MONTREAL       LGT SNOW  32  30  93 W5        29.79R FOG
QUEBEC CITY    LGT SNOW  30  28  93 E6        29.74F VSB 1
SHERBROOKE     LGT SNOW  30  30 100 NW9       29.68F

_____REGIONAL ONTARIO LOCATIONS_____


CITY           SKY/WX    TMP DP  RH WIND       PRES   REMARKS
OTTAWA         LGT SNOW  32  30  93 W14G20    29.83R FOG

______KEY______
VSB  - VISIBILITY IN MILES
WCI  - WIND CHILL INDEX
HX   - HEAT INDEX
$$
NNNN



USA.gov is the U.S. government's official web portal to all federal, state and local government web resources and services.